STARLINK-11308, 61246

Orbit data source: Space-Track

STARLINK-11308, 61246 is a payload satellite owned by SpaceX/Seattle (US) in LEO that was launched on Wed, 25 Sep 2024 UTC via an FALCON 9 launch vehicle from the Air Force Western Test Range (AFWTR). Payloads include a variety of satellites, spacecraft, and rockets equipped with specific instruments for various scientific and technological missions. These include communications satellites like Starlink; space stations such as the ISS; scientific satellites like the Hubble; Earth observation satellites from companies like Planet Labs, Umbra, and HawkEye 360; GPS; miniature CubeSats for education and research; and military/defense satellites.

Loading next visibility...
STARLINK-11308 details
Identifier
61246, 2024-175D
Orbit
LEO
Last TLE update21 hours ago
Origin
Flag of USSpaceX/Seattle (US)
ManufacturerSpaceX/Seattle
MissionOperational spacecraft
Bus & MotorSTARLINK V2M, Unknown motor
Mass730 kg wet, ~700 kg dry
Launch date (UTC)
2024-09-25 (3 months ago)
Launch vehicle
FALCON 9
Launch site
Air Force Western Test Range (AFWTR)
Object type
Payload
Rocket body
Debris
Shape & HBRUnknown
Radar Cross SectionLarge (>1 m²)

Expand to show TLE details & history

TLE from 21 hours ago
0 STARLINK-11308
1 61246U 24175D   24355.63397383  .00002213  00000-0  23116-4 0  9994
2 61246  53.1568  85.2221 0001288  34.0141 326.0959 15.69712455 13622
Epoch: 2024-12-20T15:12Z
Definitive object data (Epoch: 2024-12-20T15:12:55.338Z)
Latitude-0.00006°
Longitude127.2948°
Altitude359.914 km
Speed7.695 km/s
True Right ascension05h 40m 53s
True Declination0° 00' 00"
Sunlit
Object was in full shadow at TLE epoch
Visualization TLE readout
Latitude-12.62653°
Longitude113.30496°
Altitude362.578 km
Speed7.693 km/s
Apparent Right ascension02h 36m 29s
Apparent Declination-31° 35' 03"
Sunlit
Object is in full shadow
Visualization observer readout
Local Sidereal Time11:34:17
Azimuth268.219° W
Elevation-52.526°
Doppler factor1
Orbital elements
Apogee altitude360.849 km
Perigee altitude359.113 km
Semi-major axis6,738.118 km
Eccentricity0.0001288
Inclination53.1568°
RAAN85.2221°
Arg. of periapsis34.0141°
True anomaly326.08767°
Mean anomaly326.0959°
Eccentric anomaly326.09178°
Mean motion3.92406 °/min
BSTAR0.000023116
Orbital period91.74 mins
Loading maneuver chart data...
Loading historical data...
Loading historical data...
Loading historical data...
Loading historical data...
Loading historical data...
Loading historical data...
Loading historical data...

STARLINK-11308 Visibility forecast

Observer location: undefined°, undefined

Span
Click to sort rows by Start time (UTC) header in descending order
Start Az.
Max El. time (UTC)
Max El. Az.
Max El.
End time (UTC)
End Az.
4 mins2024-12-21 14:35:28.570Z337.524° N2024-12-21 14:37:28.570Z20.947° NNE19.229°2024-12-21 14:39:28.570Z72.367° E
4 mins2024-12-21 16:11:28.570Z284.828° WNW2024-12-21 16:13:28.570Z208.995° SW30.725°2024-12-21 16:15:28.570Z159.054° S
4 mins2024-12-22 08:40:28.570Z236.357° WSW2024-12-22 08:42:28.570Z24.906° NE41.691°2024-12-22 08:44:28.570Z46.636° ENE
|